Location: Peebles
(55.6412°N, 3.1714°W)
Time: 02:25:54
(UTC+01:00)

Envisat - Pass Details

Date: 20 August 2022
Orbit: 763 x 765 km, 98.2° (Epoch: 30 September)

Event Time Altitude Azimuth Distance (km) Brightness Sun altitude
Rises 03:58:09 0° 28° (NNE) 3,246 8.0 -13.9°
Reaches altitude 10° 04:02:13 10° 60° (ENE) 2,312 6.7 -13.6°
Maximum altitude 04:04:01 12° 81° (E) 2,189 6.1 -13.4°
Drops below altitude 10° 04:05:48 10° 102° (ESE) 2,306 5.9 -13.2°
Sets 04:09:50 0° 134° (SE) 3,224 6.2 -12.8°
